datetime,area
2006-10-02,13335.95
2006-10-03,13331.35
2006-10-04,13326.75
2006-10-05,13324.45
2006-10-06,13338.25
2006-10-07,13391.15
2006-10-08,13445.2
2006-10-09,13506.15
2006-10-10,13572.85
2006-10-11,13616.55
2006-10-12,13654.5
2006-10-13,13687.85
2006-10-14,13724.65
2006-10-15,13789.05
2006-10-16,13836.2
2006-10-17,13875.3
2006-10-18,13909.8
2006-10-19,13933.95
2006-10-20,13959.25
2006-10-21,13983.4
2006-10-22,14005.25
2006-10-23,14027.1
2006-10-24,14050.1
2006-10-25,14069.65
2006-10-26,14094.95
2006-10-27,14114.5
2006-10-28,14134.05
2006-10-29,14154.75
2006-10-30,14175.45
2006-10-31,14196.15
2006-11-01,14216.85
2006-11-02,14235.25
2006-11-03,14244.45
2006-11-04,14260.55
2006-11-05,14276.65
2006-11-06,14290.45
2006-11-07,14301.95
2006-11-08,14314.6
2006-11-09,14324.95
2006-11-10,14335.3
2006-11-11,14344.5
2006-11-12,14354.85
2006-11-13,14365.2
2006-11-14,14373.25
2006-11-15,14382.45
2006-11-16,14391.65
2006-11-17,14400.85
2006-11-18,14410.05
2006-11-19,14419.25
2006-11-20,14428.45
2006-11-21,14435.35
2006-11-22,14442.25
2006-11-23,14446.85
2006-11-24,14452.6
2006-11-25,14457.2
2006-11-26,14460.65
2006-11-27,14462.95
2006-11-28,14462.95
2006-11-29,14464.1
2006-11-30,14462.95
2006-12-01,14460.65
2006-12-02,14454.9
2006-12-03,14452.6
2006-12-04,14450.3
2006-12-05,14451.45
2006-12-06,14453.75
2006-12-07,14456.05
2006-12-08,14459.5
2006-12-09,14460.65
2006-12-10,14465.25
2006-12-11,14467.55
2006-12-12,14469.85
2006-12-13,14472.15
2006-12-14,14473.3
2006-12-15,14473.3
2006-12-16,14473.3
2006-12-17,14471.0
2006-12-18,14471.0
2006-12-19,14474.45
2006-12-20,14474.45
2006-12-21,14474.45
2006-12-22,14474.45
2006-12-23,14472.15
2006-12-24,14469.85
2006-12-25,14467.55
2006-12-26,14465.25
2006-12-27,14464.1
2006-12-28,14460.65
2006-12-29,14461.8
2006-12-30,14461.8
2006-12-31,14460.65
2007-01-01,14458.35
2007-01-02,14454.9
2007-01-03,14452.6
2007-01-04,14450.3
2007-01-05,14448.0
2007-01-06,14445.7
2007-01-07,14442.25
2007-01-08,14437.65
2007-01-09,14434.2
2007-01-10,14431.9
2007-01-11,14429.6
2007-01-12,14428.45
2007-01-13,14428.45
2007-01-14,14426.15
2007-01-15,14422.7
2007-01-16,14419.25
2007-01-17,14413.5
2007-01-18,14410.05
2007-01-19,14407.75
2007-01-20,14408.9
2007-01-21,14410.05
2007-01-22,14412.35
2007-01-23,14410.05
2007-01-24,14407.75
2007-01-25,14404.3
2007-01-26,14399.7
2007-01-27,14397.4
2007-01-28,14393.95
2007-01-29,14391.65
2007-01-30,14389.35
2007-01-31,14387.05
2007-02-01,14382.45
2007-02-02,14379.0
2007-02-03,14376.7
2007-02-04,14373.25
2007-02-05,14369.8
2007-02-06,14367.5
2007-02-07,14366.35
2007-02-08,14364.05
2007-02-09,14368.65
2007-02-10,14370.95
2007-02-11,14380.15
2007-02-12,14391.65
2007-02-13,14398.55
2007-02-14,14400.85
2007-02-15,14402.0
2007-02-16,14398.55
2007-02-17,14399.7
2007-02-18,14398.55
2007-02-19,14398.55
2007-02-20,14397.4
2007-02-21,14398.55
2007-02-22,14398.55
2007-02-23,14395.1
2007-02-24,14391.65
2007-02-25,14391.65
2007-02-26,14390.5
2007-02-27,14388.2
2007-02-28,14384.75
2007-03-01,14383.6
2007-03-02,14377.85
2007-03-03,14372.1
2007-03-04,14368.65
2007-03-05,14366.35
2007-03-06,14364.05
2007-03-07,14366.35
2007-03-08,14373.25
2007-03-09,14370.95
2007-03-10,14373.25
2007-03-11,14377.85
2007-03-12,14387.05
2007-03-13,14403.15
2007-03-14,14426.15
2007-03-15,14451.45
2007-03-16,14481.35
2007-03-17,14511.25
2007-03-18,14541.15
2007-03-19,14568.75
2007-03-20,14588.3
2007-03-21,14612.45
2007-03-22,14649.25
2007-03-23,14688.35
2007-03-24,14722.85
2007-03-25,14750.45
2007-03-26,14770.0
2007-03-27,14786.1
2007-03-28,14799.9
2007-03-29,14810.25
2007-03-30,14819.45
2007-03-31,14828.65
2007-04-01,14837.85
2007-04-02,14839.0
2007-04-03,14840.15
2007-04-04,14842.45
2007-04-05,14847.05
2007-04-06,14853.95
2007-04-07,14863.15
2007-04-08,14872.35
2007-04-09,14883.85
2007-04-10,14890.75
2007-04-11,14898.8
2007-04-12,14911.45
2007-04-13,14921.8
2007-04-14,14931.0
2007-04-15,14940.2
2007-04-16,14948.25
2007-04-17,14952.85
2007-04-18,14951.7
2007-04-19,14955.15
2007-04-20,14962.05
2007-04-21,14964.35
2007-04-22,14968.95
2007-04-23,14971.25
2007-04-24,14971.25
2007-04-25,14970.1
2007-04-26,14967.8
2007-04-27,14965.5
2007-04-28,14965.5
2007-04-29,14973.55
2007-04-30,14978.15
2007-05-01,14974.7
2007-05-02,14987.35
2007-05-03,14986.2
2007-05-04,14958.6
2007-05-05,14927.55
2007-05-06,14894.2
2007-05-07,14858.55
2007-05-08,14817.15
2007-05-09,14771.15
2007-05-10,14722.85
2007-05-11,14676.85
2007-05-12,14638.9
2007-05-13,14597.5
2007-05-14,14573.35
2007-05-15,14546.9
2007-05-16,14512.4
2007-05-17,14490.55
2007-05-18,14481.35
2007-05-19,14471.0
2007-05-20,14467.55
2007-05-21,14465.25
2007-05-22,14481.35
2007-05-23,14508.95
2007-05-24,14538.85
2007-05-25,14582.55
2007-05-26,14587.15
2007-05-27,14605.55
2007-05-28,14620.5
2007-05-29,14632.0
2007-05-30,14644.65
2007-05-31,14658.45
2007-06-01,14682.6
2007-06-02,14718.25
2007-06-03,14752.75
2007-06-04,14786.1
2007-06-05,14817.15
2007-06-06,14847.05
2007-06-07,14852.8
2007-06-08,14863.15
2007-06-09,14870.05
2007-06-10,14876.95
2007-06-11,14883.85
2007-06-12,14904.55
2007-06-13,14932.15
2007-06-14,14945.95
2007-06-15,14962.05
2007-06-16,14985.05
2007-06-17,15003.6
2007-06-18,15022.8
2007-06-19,15031.2
2007-06-20,15032.4
2007-06-21,15032.4
2007-06-22,15030.0
2007-06-23,15021.6
2007-06-24,15014.4
2007-06-25,15008.4
2007-06-26,14998.85
2007-06-27,14987.35
2007-06-28,14978.15
2007-06-29,14972.4
2007-06-30,14963.2
2007-07-01,14955.15
2007-07-02,14944.8
2007-07-03,14933.3
2007-07-04,14921.8
2007-07-05,14909.15
2007-07-06,14898.8
2007-07-07,14883.85
2007-07-08,14874.65
2007-07-09,14860.85
2007-07-10,14844.75
2007-07-11,14828.65
2007-07-12,14816.0
2007-07-13,14802.2
2007-07-14,14790.7
2007-07-15,14774.6
2007-07-16,14761.95
2007-07-17,14749.3
2007-07-18,14732.05
2007-07-19,14717.1
2007-07-20,14709.05
2007-07-21,14695.25
2007-07-22,14689.5
2007-07-23,14683.75
2007-07-24,14675.7
2007-07-25,14665.35
2007-07-26,14655.0
2007-07-27,14643.5
2007-07-28,14638.9
2007-07-29,14635.45
2007-07-30,14628.55
2007-07-31,14628.55
2007-08-01,14625.1
2007-08-02,14617.05
2007-08-03,14658.45
2007-08-04,14660.75
2007-08-05,14664.2
2007-08-06,14673.4
2007-08-07,14683.75
2007-08-08,14689.5
2007-08-09,14689.5
2007-08-10,14688.35
2007-08-11,14680.3
2007-08-12,14673.4
2007-08-13,14664.2
2007-08-14,14655.0
2007-08-15,14648.1
2007-08-16,14637.75
2007-08-17,14622.8
2007-08-18,14611.3
2007-08-19,14599.8
2007-08-20,14582.55
2007-08-21,14567.6
2007-08-22,14550.35
2007-08-23,14534.25
2007-08-24,14519.3
2007-08-25,14504.35
2007-08-26,14491.7
2007-08-27,14476.75
2007-08-28,14462.95
2007-08-29,14451.45
2007-08-30,14436.5
2007-08-31,14422.7
2007-09-01,14406.6
2007-09-02,14406.6
2007-09-03,14396.25
2007-09-04,14388.2
2007-09-05,14375.55
2007-09-06,14359.45
2007-09-07,14347.95
2007-09-08,14333.0
2007-09-09,14319.2
2007-09-10,14301.95
2007-09-11,14290.45
2007-09-12,14274.35
2007-09-13,14259.4
2007-09-14,14244.45
2007-09-15,14228.35
2007-09-16,14212.25
2007-09-17,14200.75
2007-09-18,14191.55
2007-09-19,14177.75
2007-09-20,14163.95
2007-09-21,14151.3
2007-09-22,14139.8
2007-09-23,14132.9
2007-09-24,14136.35
2007-09-25,14134.05
2007-09-26,14122.55
2007-09-27,14112.2
2007-09-28,14103.0
2007-09-29,14093.8
2007-09-30,14091.5
2007-10-01,14084.6
2007-10-02,14076.55
2007-10-03,14068.5
2007-10-04,14058.15
2007-10-05,14065.05
2007-10-06,14078.85
2007-10-07,14083.45
2007-10-08,14086.9
2007-10-09,14088.05
2007-10-10,14086.9
2007-10-11,14084.6
2007-10-12,14084.6
2007-10-13,14085.75
2007-10-14,14090.35
2007-10-15,14092.65
2007-10-16,14094.95
2007-10-17,14090.35
2007-10-18,14089.2
2007-10-19,14093.8
2007-10-20,14097.25
2007-10-21,14100.7
2007-10-22,14099.55
2007-10-23,14093.8
2007-10-24,14089.2
2007-10-25,14083.45
2007-10-26,14082.3
2007-10-27,14082.3
2007-10-28,14082.3
2007-10-29,14082.3
2007-10-30,14082.3
2007-10-31,14081.15
2007-11-01,14075.4
2007-11-02,14068.5
2007-11-03,14059.3
2007-11-04,14051.25
2007-11-05,14044.35
2007-11-06,14036.3
2007-11-07,14028.25
2007-11-08,14017.9
2007-11-09,14008.7
2007-11-10,13998.35
2007-11-11,13989.15
2007-11-12,13981.1
2007-11-13,13971.9
2007-11-14,13963.85
2007-11-15,13955.8
2007-11-16,13946.6
2007-11-17,13937.4
2007-11-18,13929.35
2007-11-19,13920.15
2007-11-20,13910.95
2007-11-21,13900.6
2007-11-22,13891.4
2007-11-23,13885.65
2007-11-24,13876.45
2007-11-25,13866.1
2007-11-26,13861.5
2007-11-27,13860.35
2007-11-28,13856.9
2007-11-29,13858.05
2007-11-30,13858.05
2007-12-01,13883.35
2007-12-02,13904.05
2007-12-03,13908.65
2007-12-04,13913.25
2007-12-05,13919.0
2007-12-06,13919.0
2007-12-07,13928.2
2007-12-08,13974.2
2007-12-09,13984.55
2007-12-10,13989.15
2007-12-11,13989.15
2007-12-12,13989.15
2007-12-13,13985.7
2007-12-14,13977.65
2007-12-15,13973.05
2007-12-16,13963.85
2007-12-17,13955.8
2007-12-18,13948.9
2007-12-19,13940.85
2007-12-20,13936.25
2007-12-21,13929.35
2007-12-22,13922.45
2007-12-23,13913.25
2007-12-24,13905.2
2007-12-25,13894.85
2007-12-26,13887.95
2007-12-27,13876.45
2007-12-28,13868.4
2007-12-29,13858.05
2007-12-30,13846.55
2007-12-31,13837.35
2008-01-01,13828.15
2008-01-02,13817.8
2008-01-03,13809.75
2008-01-04,13802.85
2008-01-05,13799.4
2008-01-06,13821.25
2008-01-07,13824.7
2008-01-08,13822.4
2008-01-09,13814.35
2008-01-10,13806.3
2008-01-11,13798.25
2008-01-12,13791.35
2008-01-13,13783.3
2008-01-14,13775.25
2008-01-15,13766.05
2008-01-16,13756.85
2008-01-17,13747.65
2008-01-18,13737.3
2008-01-19,13728.1
2008-01-20,13720.05
2008-01-21,13709.7
2008-01-22,13701.65
2008-01-23,13693.6
2008-01-24,13686.7
2008-01-25,13679.8
2008-01-26,13671.75
2008-01-27,13667.15
2008-01-28,13659.1
2008-01-29,13656.8
2008-01-30,13647.6
2008-01-31,13641.85
2008-02-01,13632.65
2008-02-02,13625.75
2008-02-03,13622.3
2008-02-04,13618.85
2008-02-05,13611.95
2008-02-06,13602.75
2008-02-07,13595.85
2008-02-08,13587.8
2008-02-09,13582.05
2008-02-10,13574.0
2008-02-11,13551.0
2008-02-12,13514.2
2008-02-13,13475.1
2008-02-14,13444.05
2008-02-15,13410.7
2008-02-16,13379.65
2008-02-17,13348.6
2008-02-18,13315.25
2008-02-19,13280.75
2008-02-20,13246.25
2008-02-21,13215.2
2008-02-22,13185.3
2008-02-23,13160.0
2008-02-24,13127.8
2008-02-25,13101.35
2008-02-26,13072.6
2008-02-27,13046.15
2008-02-28,13018.55
2008-02-29,12997.85
2008-03-01,12982.9
2008-03-02,12969.1
2008-03-03,12948.4
2008-03-04,12923.1
2008-03-05,12897.8
2008-03-06,12872.5
2008-03-07,12842.6
2008-03-08,12816.15
2008-03-09,12786.25
2008-03-10,12747.15
2008-03-11,12704.6
2008-03-12,12675.3
2008-03-13,12652.5
2008-03-14,12638.25
2008-03-15,12621.15
2008-03-16,12599.3
2008-03-17,12578.4
2008-03-18,12550.85
2008-03-19,12525.2
2008-03-20,12504.3
2008-03-21,12491.95
2008-03-22,12482.45
2008-03-23,12473.9
2008-03-24,12470.1
2008-03-25,12465.35
2008-03-26,12466.3
2008-03-27,12474.85
2008-03-28,12491.0
2008-03-29,12493.85
2008-03-30,12495.75
2008-03-31,12501.45
2008-04-01,12504.3
2008-04-02,12500.5
2008-04-03,12499.55
2008-04-04,12501.45
2008-04-05,12500.5
2008-04-06,12491.95
2008-04-07,12489.1
2008-04-08,12497.65
2008-04-09,12517.6
2008-04-10,12532.8
2008-04-11,12543.25
2008-04-12,12543.25
2008-04-13,12541.35
2008-04-14,12535.65
2008-04-15,12539.45
2008-04-16,12571.75
2008-04-17,12590.75
2008-04-18,12600.25
2008-04-19,12604.05
2008-04-20,12617.35
2008-04-21,12633.5
2008-04-22,12649.65
2008-04-23,12668.65
2008-04-24,12691.45
2008-04-25,12721.85
2008-04-26,12747.15
2008-04-27,12770.15
2008-04-28,12783.95
2008-04-29,12798.9
2008-04-30,12811.55
2008-05-01,12836.85
2008-05-02,12861.0
2008-05-03,12871.35
2008-05-04,12875.95
2008-05-05,12882.85
2008-05-06,12896.65
2008-05-07,12917.35
2008-05-08,12942.65
2008-05-09,12958.75
2008-05-10,12971.4
2008-05-11,12989.8
2008-05-12,13016.25
2008-05-13,13061.1
2008-05-14,13094.45
2008-05-15,13124.35
2008-05-16,13155.4
2008-05-17,13187.6
2008-05-18,13226.7
2008-05-19,13270.4
2008-05-20,13318.7
2008-05-21,13380.8
2008-05-22,13440.6
2008-05-23,13476.25
2008-05-24,13485.45
2008-05-25,13486.6
2008-05-26,13484.3
2008-05-27,13470.5
2008-05-28,13439.45
2008-05-29,13398.05
2008-05-30,13365.85
2008-05-31,13337.1
2008-06-01,13318.7
2008-06-02,13310.65
2008-06-03,13307.2
2008-06-04,13301.45
2008-06-05,13279.6
2008-06-06,13253.15
2008-06-07,13212.9
2008-06-08,13181.85
2008-06-09,13149.65
2008-06-10,13128.95
2008-06-11,13111.7
2008-06-12,13072.6
2008-06-13,13028.9
2008-06-14,12990.95
2008-06-15,12956.45
2008-06-16,12927.7
2008-06-17,12897.8
2008-06-18,12869.05
2008-06-19,12850.65
2008-06-20,12840.3
2008-06-21,12832.25
2008-06-22,12815.0
2008-06-23,12811.55
2008-06-24,12818.45
2008-06-25,12831.1
2008-06-26,12848.35
2008-06-27,12863.3
2008-06-28,12878.25
2008-06-29,12890.9
2008-06-30,12903.55
2008-07-01,12919.65
2008-07-02,12931.15
2008-07-03,12938.05
2008-07-04,12949.55
2008-07-05,12956.45
2008-07-06,12958.75
2008-07-07,12963.35
2008-07-08,12966.8
2008-07-09,12966.8
2008-07-10,12964.5
2008-07-11,12959.9
2008-07-12,12954.15
2008-07-13,12950.7
2008-07-14,12947.25
2008-07-15,12941.5
2008-07-16,12934.6
2008-07-17,12928.85
2008-07-18,12920.8
2008-07-19,12910.45
2008-07-20,12901.25
2008-07-21,12900.1
2008-07-22,12896.65
2008-07-23,12893.2
2008-07-24,12890.9
2008-07-25,12888.6
2008-07-26,12887.45
2008-07-27,12889.75
2008-07-28,12892.05
2008-07-29,12894.35
2008-07-30,12893.2
2008-07-31,12887.45
2008-08-01,12882.85
2008-08-02,12875.95
2008-08-03,12866.75
2008-08-04,12856.4
2008-08-05,12850.65
2008-08-06,12847.2
2008-08-07,12850.65
2008-08-08,12856.4
2008-08-09,12862.15
2008-08-10,12866.75
2008-08-11,12867.9
2008-08-12,12863.3
2008-08-13,12855.25
2008-08-14,12846.05
2008-08-15,12835.7
2008-08-16,12821.9
2008-08-17,12815.0
2008-08-18,12806.95
2008-08-19,12794.3
2008-08-20,12777.05
2008-08-21,12759.8
2008-08-22,12742.55
2008-08-23,12726.45
2008-08-24,12709.2
2008-08-25,12694.3
2008-08-26,12681.0
2008-08-27,12668.65
2008-08-28,12653.45
2008-08-29,12642.05
2008-08-30,12637.3
2008-08-31,12648.7
2008-09-01,12680.05
2008-09-02,12693.35
2008-09-03,12696.2
2008-09-04,12697.15
2008-09-05,12695.25
2008-09-06,12692.4
2008-09-07,12688.6
2008-09-08,12683.85
2008-09-09,12677.2
2008-09-10,12673.4
2008-09-11,12668.65
2008-09-12,12663.9
2008-09-13,12659.15
2008-09-14,12653.45
2008-09-15,12648.7
2008-09-16,12640.15
2008-09-17,12628.75
2008-09-18,12615.45
2008-09-19,12605.95
2008-09-20,12595.5
2008-09-21,12586.0
2008-09-22,12576.5
2008-09-23,12566.05
2008-09-24,12555.6
2008-09-25,12546.1
2008-09-26,12534.7
2008-09-27,12522.35
2008-09-28,12510.95
2008-09-29,12499.55
2008-09-30,12485.3
2008-10-01,12472.95
2008-10-02,12460.6
2008-10-03,12450.15
2008-10-04,12448.25
2008-10-05,12451.1
2008-10-06,12447.3
2008-10-07,12444.45
2008-10-08,12440.65
2008-10-09,12440.65
2008-10-10,12433.05
2008-10-11,12434.0
2008-10-12,12438.75
2008-10-13,12443.5
2008-10-14,12447.3
2008-10-15,12445.4
2008-10-16,12444.45
2008-10-17,12438.75
2008-10-18,12435.9
2008-10-19,12431.15
2008-10-20,12428.3
2008-10-21,12426.4
2008-10-22,12423.55
2008-10-23,12421.65
2008-10-24,12416.9
2008-10-25,12415.95
2008-10-26,12413.1
2008-10-27,12411.2
2008-10-28,12408.35
2008-10-29,12404.55
2008-10-30,12401.7
2008-10-31,12398.85
2008-11-01,12395.05
2008-11-02,12391.25
2008-11-03,12389.35
2008-11-04,12382.7
2008-11-05,12377.95
2008-11-06,12375.1
2008-11-07,12371.3
2008-11-08,12367.5
2008-11-09,12363.7
2008-11-10,12361.8
2008-11-11,12358.95
2008-11-12,12356.1
2008-11-13,12353.25
2008-11-14,12348.5
2008-11-15,12345.65
2008-11-16,12341.85
2008-11-17,12338.05
2008-11-18,12335.2
2008-11-19,12331.4
2008-11-20,12326.65
2008-11-21,12322.85
2008-11-22,12319.05
2008-11-23,12313.35
2008-11-24,12307.65
2008-11-25,12302.9
2008-11-26,12298.15
2008-11-27,12297.2
2008-11-28,12298.15
2008-11-29,12295.3
2008-11-30,12289.6
2008-12-01,12287.7
2008-12-02,12282.0
2008-12-03,12278.2
2008-12-04,12273.45
2008-12-05,12268.7
2008-12-06,12263.95
2008-12-07,12259.2
2008-12-08,12256.35
2008-12-09,12254.45
2008-12-10,12250.65
2008-12-11,12245.9
2008-12-12,12241.15
2008-12-13,12235.45
2008-12-14,12232.6
2008-12-15,12227.85
2008-12-16,12225.0
2008-12-17,12222.15
2008-12-18,12218.35
2008-12-19,12216.45
2008-12-20,12210.75
2008-12-21,12206.0
2008-12-22,12203.15
2008-12-23,12202.2
2008-12-24,12198.4
2008-12-25,12194.6
2008-12-26,12190.8
2008-12-27,12186.05
2008-12-28,12180.35
2008-12-29,12174.65
2008-12-30,12169.9
2008-12-31,12166.1
2009-01-01,12161.35
2009-01-02,12158.5
2009-01-03,12154.7
2009-01-04,12152.8
2009-01-05,12149.95
2009-01-06,12146.15
2009-01-07,12143.3
2009-01-08,12139.5
2009-01-09,12133.8
2009-01-10,12130.0
2009-01-11,12125.25
2009-01-12,12121.45
2009-01-13,12116.7
2009-01-14,12112.9
2009-01-15,12108.15
2009-01-16,12104.35
2009-01-17,12099.6
2009-01-18,12095.8
2009-01-19,12092.0
2009-01-20,12089.15
2009-01-21,12085.35
2009-01-22,12081.55
2009-01-23,12078.7
2009-01-24,12078.7
2009-01-25,12078.7
2009-01-26,12076.8
2009-01-27,12074.9
2009-01-28,12072.05
2009-01-29,12070.15
2009-01-30,12066.35
2009-01-31,12062.55
2009-02-01,12059.7
2009-02-02,12055.9
2009-02-03,12051.15
2009-02-04,12048.3
2009-02-05,12045.45
2009-02-06,12042.6
2009-02-07,12040.7
2009-02-08,12037.85
2009-02-09,12039.75
2009-02-10,12038.8
2009-02-11,12038.8
2009-02-12,12034.05
2009-02-13,12032.15
2009-02-14,12029.3
2009-02-15,12026.45
2009-02-16,12022.65
2009-02-17,12017.9
2009-02-18,12013.15
2009-02-19,12010.3
2009-02-20,12006.5
2009-02-21,12003.65
2009-02-22,11999.85
2009-02-23,11997.95
2009-02-24,11999.85
2009-02-25,12005.55
2009-02-26,12012.2
2009-02-27,12016.95
2009-02-28,12020.75
2009-03-01,12023.6
2009-03-02,12026.45
2009-03-03,12033.1
2009-03-04,12035.95
2009-03-05,12038.8
2009-03-06,12042.6
2009-03-07,12046.4
2009-03-08,12048.3
2009-03-09,12046.4
2009-03-10,12047.35
2009-03-11,12048.3
2009-03-12,12047.35
2009-03-13,12051.15
2009-03-14,12051.15
2009-03-15,12052.1
2009-03-16,12056.85
2009-03-17,12064.45
2009-03-18,12075.85
2009-03-19,12090.1
2009-03-20,12108.15
2009-03-21,12126.2
2009-03-22,12143.3
2009-03-23,12168.95
2009-03-24,12187.0
2009-03-25,12200.3
2009-03-26,12209.8
2009-03-27,12219.3
2009-03-28,12225.0
2009-03-29,12228.8
2009-03-30,12230.7
2009-03-31,12237.35
2009-04-01,12241.15
2009-04-02,12245.9
2009-04-03,12248.75
2009-04-04,12253.5
2009-04-05,12258.25
2009-04-06,12258.25
2009-04-07,12260.15
2009-04-08,12261.1
2009-04-09,12266.8
2009-04-10,12272.5
2009-04-11,12285.8
2009-04-12,12299.1
2009-04-13,12312.4
2009-04-14,12316.2
2009-04-15,12320.95
2009-04-16,12330.45
2009-04-17,12342.8
2009-04-18,12347.55
2009-04-19,12350.4
2009-04-20,12358.0
2009-04-21,12367.5
2009-04-22,12387.45
2009-04-23,12411.2
2009-04-24,12434.0
2009-04-25,12460.6
2009-04-26,12487.2
2009-04-27,12508.1
2009-04-28,12529.0
2009-04-29,12551.8
2009-04-30,12582.2
2009-05-01,12616.4
2009-05-02,12657.25
2009-05-03,12692.4
2009-05-04,12721.85
2009-05-05,12752.9
2009-05-06,12788.55
2009-05-07,12838.0
2009-05-08,12902.4
2009-05-09,12972.55
2009-05-10,13039.25
2009-05-11,13110.55
2009-05-12,13184.15
2009-05-13,13258.9
2009-05-14,13337.1
2009-05-15,13414.15
2009-05-16,13486.6
2009-05-17,13555.6
2009-05-18,13625.75
2009-05-19,13701.65
2009-05-20,13770.65
2009-05-21,13829.3
2009-05-22,13890.25
2009-05-23,13958.1
2009-05-24,14037.45
2009-05-25,14115.65
2009-05-26,14167.4
2009-05-27,14195.0
2009-05-28,14196.15
2009-05-29,14178.9
2009-05-30,14155.9
2009-05-31,14134.05
2009-06-01,14096.1
2009-06-02,14045.5
2009-06-03,13993.75
2009-06-04,13939.7
2009-06-05,13884.5
2009-06-06,13827.0
2009-06-07,13767.2
2009-06-08,13714.3
2009-06-09,13682.1
2009-06-10,13672.9
2009-06-11,13672.9
2009-06-12,13677.5
2009-06-13,13686.7
2009-06-14,13693.6
2009-06-15,13698.2
2009-06-16,13703.95
2009-06-17,13707.4
2009-06-18,13707.4
2009-06-19,13707.4
2009-06-20,13715.45
2009-06-21,13725.8
2009-06-22,13731.55
2009-06-23,13735.0
2009-06-24,13739.6
2009-06-25,13747.65
2009-06-26,13775.25
2009-06-27,13805.15
2009-06-28,13822.4
2009-06-29,13832.75
2009-06-30,13840.8
2009-07-01,13841.95
2009-07-02,13843.1
2009-07-03,13844.25
2009-07-04,13844.25
2009-07-05,13844.25
2009-07-06,13841.95
2009-07-07,13836.2
2009-07-08,13824.7
2009-07-09,13809.75
2009-07-10,13793.65
2009-07-11,13779.85
2009-07-12,13763.75
2009-07-13,13747.65
2009-07-14,13726.95
2009-07-15,13703.95
2009-07-16,13682.1
2009-07-17,13656.8
2009-07-18,13631.5
2009-07-19,13603.9
2009-07-20,13578.6
2009-07-21,13555.6
2009-07-22,13534.9
2009-07-23,13513.05
2009-07-24,13488.9
2009-07-25,13465.9
2009-07-26,13446.35
2009-07-27,13427.95
2009-07-28,13408.4
2009-07-29,13386.55
2009-07-30,13369.3
2009-07-31,13355.5
2009-08-01,13340.55
2009-08-02,13325.6
2009-08-03,13308.35
2009-08-04,13289.95
2009-08-05,13268.1
2009-08-06,13248.55
2009-08-07,13224.4
2009-08-08,13199.1
2009-08-09,13174.95
2009-08-10,13149.65
2009-08-11,13122.05
2009-08-12,13095.6
2009-08-13,13068.0
2009-08-14,13049.6
2009-08-15,13034.65
2009-08-16,13009.35
2009-08-17,12984.05
2009-08-18,12957.6
2009-08-19,12932.3
2009-08-20,12910.45
2009-08-21,12887.45
2009-08-22,12863.3
2009-08-23,12841.45
2009-08-24,12823.05
2009-08-25,12806.95
2009-08-26,12787.4
2009-08-27,12769.0
2009-08-28,12750.6
2009-08-29,12732.2
2009-08-30,12716.1
2009-08-31,12696.2
2009-09-01,12681.95
2009-09-02,12664.85
2009-09-03,12645.85
2009-09-04,12631.6
2009-09-05,12621.15
2009-09-06,12612.6
2009-09-07,12603.1
2009-09-08,12589.8
2009-09-09,12573.65
2009-09-10,12562.25
2009-09-11,12555.6
2009-09-12,12546.1
2009-09-13,12540.4
2009-09-14,12538.5
2009-09-15,12531.85
2009-09-16,12526.15
2009-09-17,12522.35
2009-09-18,12518.55
2009-09-19,12518.55
2009-09-20,12516.65
2009-09-21,12510.0
2009-09-22,12504.3
2009-09-23,12496.7
2009-09-24,12488.15
2009-09-25,12481.5
2009-09-26,12477.7
2009-09-27,12473.9
2009-09-28,12467.25
2009-09-29,12456.8
2009-09-30,12443.5
2009-10-01,12431.15
2009-10-02,12422.6
2009-10-03,12415.0
2009-10-04,12403.6
2009-10-05,12396.0
2009-10-06,12389.35
2009-10-07,12378.9
2009-10-08,12369.4
2009-10-09,12361.8
2009-10-10,12352.3
2009-10-11,12341.85
2009-10-12,12331.4
2009-10-13,12322.85
2009-10-14,12315.25
2009-10-15,12304.8
2009-10-16,12293.4
2009-10-17,12282.95
2009-10-18,12274.4
2009-10-19,12262.05
2009-10-20,12248.75
2009-10-21,12246.85
2009-10-22,12244.0
2009-10-23,12242.1
2009-10-24,12236.4
2009-10-25,12231.65
2009-10-26,12227.85
2009-10-27,12221.2
2009-10-28,12217.4
2009-10-29,12211.7
2009-10-30,12207.9
2009-10-31,12202.2
2009-11-01,12198.4
2009-11-02,12195.55
2009-11-03,12191.75
2009-11-04,12188.9
2009-11-05,12185.1
2009-11-06,12180.35
2009-11-07,12176.55
2009-11-08,12171.8
2009-11-09,12167.05
2009-11-10,12163.25
2009-11-11,12158.5
2009-11-12,12151.85
2009-11-13,12148.05
2009-11-14,12145.2
2009-11-15,12142.35
2009-11-16,12138.55
2009-11-17,12132.85
2009-11-18,12127.15
2009-11-19,12121.45
2009-11-20,12115.75
2009-11-21,12111.0
2009-11-22,12107.2
2009-11-23,12100.55
2009-11-24,12094.85
2009-11-25,12089.15
2009-11-26,12084.4
2009-11-27,12079.65
2009-11-28,12074.9
2009-11-29,12072.05
2009-11-30,12067.3
2009-12-01,12062.55
2009-12-02,12055.9
2009-12-03,12049.25
2009-12-04,12042.6
2009-12-05,12035.95
2009-12-06,12029.3
2009-12-07,12027.4
2009-12-08,12022.65
2009-12-09,12017.9
2009-12-10,12011.25
2009-12-11,12005.55
2009-12-12,11999.85
2009-12-13,11995.1
2009-12-14,11991.3
2009-12-15,11986.55
2009-12-16,11981.8
2009-12-17,11976.1
2009-12-18,11971.35
2009-12-19,11965.65
2009-12-20,11960.9
2009-12-21,11956.15
2009-12-22,11953.3
2009-12-23,11948.55
2009-12-24,11943.8
2009-12-25,11938.1
2009-12-26,11932.4
2009-12-27,11925.75
2009-12-28,11920.05
2009-12-29,11913.4
2009-12-30,11908.65
2009-12-31,11902.95
2010-01-01,11897.25
2010-01-02,11890.6
2010-01-03,11883.95
2010-01-04,11878.25
2010-01-05,11871.6
2010-01-06,11865.9
2010-01-07,11860.2
2010-01-08,11853.55
2010-01-09,11846.9
2010-01-10,11840.25
2010-01-11,11834.55
2010-01-12,11828.85
2010-01-13,11823.15
2010-01-14,11816.5
2010-01-15,11810.8
2010-01-16,11805.1
2010-01-17,11799.4
2010-01-18,11797.5
2010-01-19,11797.5
2010-01-20,11794.65
2010-01-21,11794.65
2010-01-22,11792.75
2010-01-23,11787.05
2010-01-24,11782.3
2010-01-25,11776.6
2010-01-26,11771.85
2010-01-27,11768.05
2010-01-28,11765.2
2010-01-29,11762.35
2010-01-30,11758.55
2010-01-31,11753.8
2010-02-01,11749.05
2010-02-02,11745.25
2010-02-03,11740.5
2010-02-04,11735.75
2010-02-05,11731.95
2010-02-06,11729.1
2010-02-07,11728.15
2010-02-08,11725.3
2010-02-09,11722.45